Showing default

KUIPER-00286, 68590

Orbit data source: Space-Track

KUIPER-00286, 68590 is a payload satellite owned by Kuiper Systems (US) in LEO that was launched on Sat, 04 Apr 2026 UTC via an ATLAS V 551 launch vehicle from the Air Force Eastern Test Range (AFETR). Payload-class satellites include a variety of spacecraft equipped with specific instruments for various scientific and technological missions. These include communications satellites like Starlink; space stations such as the ISS; scientific satellites like the Hubble; Earth observation satellites from companies like Planet Labs, Umbra, and HawkEye 360; GPS; miniature CubeSats for education and research; and military/defense satellites.

Loading next visibility...
Identifier
68590, 2026-072T
Orbit
LEO
Country
Flag of USUS
Related business
Manufacturer
Kuiper Systems
Mission
Operational spacecraft
Bus & Motor
KUIPER, Unknown motor
Mass
~490 kg wet, ~490 kg dry
Launch date (UTC)
2026-04-04 (2 months ago)
Launch vehicle
ATLAS V 551
Launch site
Air Force Eastern Test Range (AFETR)
Object type
Payload
Rocket body
Debris
Shape & HBR
Unknown shape, 3.4 m
Radar Cross Section
Large (>1 m²)

Expand to show TLE details & history
Last TLE update: 1 day ago

TLE from 1 day ago
0 KUIPER-00286
1 68590U 26072T   26149.59533398  .00020595  00000-0  53717-3 0  9999
2 68590  51.8746 266.5753 0004738 304.2295  55.8243 15.38791033  8524
Epoch: 2026-05-29T14:17Z
TLE epoch observation values (Epoch: 2026-05-29T14:17:16.855Z)
Latitude
-0.00005°
Longitude
165.13157°
Altitude
448.631 km
Speed
7.645 km/s
True Right ascension
17h 46m 18s
True Declination
0° 00' 00"
Sunlit
Object was in full shadow at epoch
Visualization orbit readout
Latitude
Unknown
Longitude
Unknown
Altitude
Unknown
Speed
Unknown
Apparent Right ascension
Unknown
Apparent Declination
Unknown
Sunlit
N/A
Visualization observer readout
Local Sidereal Time
00:45:27
Azimuth
Unknown
Elevation
Unknown
Doppler factor
Unknown
Orbital elements
Apogee altitude
453.385 km
Perigee altitude
446.915 km
Semi-major axis
6,828.287 km
Eccentricity
0.00047
Inclination
51.8746°
RAAN
266.5753°
Arg. of periapsis
304.2295°
True anomaly
55.86923°
Mean anomaly
55.8243°
Eccentric anomaly
55.84676°
Mean motion
3.84659 °/min
Orbital period
93.59 mins
BSTAR
0.00053717
Loading maneuver chart data...
Computing Atmospheric mass density...
Loading historical data...
Loading historical data...
Loading historical data...
Loading historical data...
Loading historical data...
Loading historical data...
Loading historical data...

Documentation

Showing up to 5 results
|